FW8901 Weather Reports


Display with metric or nautical units.
time (UTC)temp
F
wind
direction
speed
MPH
gust
MPH
rain 1hr
in
rain 24hr
in
rain mn
in
humidity
%
barometer
mb
20260904192046 87 0.0 0.0 0.00 0.37 0.31 72 1013.1
20260904191606 87 0.0 0.0 0.00 0.37 0.31 71 1013.2
20260904191048 88 0.0 0.0 0.00 0.37 0.31 68 1013.0
20260904190556 89 0.0 0.0 0.00 0.37 0.31 66 1013.2
20260904190115 89 0.0 0.0 0.00 0.37 0.31 65 1013.2
20260904185544 90 0.0 0.0 0.00 0.37 0.31 60 1013.0
20260904185048 91 0.0 0.0 0.00 0.37 0.31 59 1013.1
20260904184600 92 0.0 0.0 0.00 0.37 0.31 56 1013.3
20260904184047 94 0.0 0.0 0.00 0.37 0.31 54 1013.5
20260904183547 94 0.0 0.0 0.00 0.37 0.31 56 1013.5
20260904183108 94 0.0 0.0 0.00 0.37 0.31 55 1013.6
20260904182546 94 0.0 0.0 0.00 0.37 0.31 53 1013.7
20260904182046 94 0.0 0.0 0.00 0.37 0.31 55 1014.0
20260904181607 93 0.0 0.0 0.00 0.37 0.31 57 1013.9
20260904181047 93 0.0 0.0 0.00 0.37 0.31 55 1014.0
20260904180547 93 0.0 0.0 0.00 0.37 0.31 54 1014.1
20260904180104 93 0.0 0.0 0.00 0.37 0.31 55 1014.2
20260904175548 92 0.0 0.0 0.00 0.37 0.31 54 1014.2
20260904175048 91 0.0 0.0 0.00 0.37 0.31 59 1014.2
20260904174558 92 0.0 0.0 0.00 0.37 0.31 58 1014.3
20260904174047 92 0.0 0.0 0.00 0.37 0.31 54 1014.4
20260904173546 92 0.0 0.0 0.00 0.37 0.31 56 1014.4
20260904173128 91 0.0 0.0 0.00 0.37 0.31 56 1014.4
20260904172546 91 0.0 0.0 0.00 0.37 0.31 57 1014.4
20260904172045 91 0.0 0.0 0.00 0.37 0.31 56 1014.6
20260904171611 91 0.0 0.0 0.00 0.37 0.31 57 1014.5
20260904171048 90 0.0 0.0 0.00 0.37 0.31 57 1014.6
20260904170548 91 0.0 0.0 0.00 0.37 0.31 57 1014.5
20260904170101 90 0.0 0.0 0.00 0.37 0.31 61 1014.4
20260904165559 90 0.0 0.0 0.00 0.37 0.31 58 1014.4
20260904165047 90 0.0 0.0 0.00 0.37 0.31 59 1014.6
20260904164612 89 0.0 0.0 0.00 0.37 0.31 58 1014.5
20260904164048 90 0.0 0.0 0.00 0.37 0.31 57 1014.6
20260904163546 90 0.0 0.0 0.00 0.37 0.31 59 1014.7
20260904163102 89 0.0 0.0 0.00 0.37 0.31 61 1015.0
20260904162546 89 0.0 0.0 0.00 0.37 0.31 62 1014.9
20260904162046 89 0.0 0.0 0.00 0.37 0.31 61 1015.0
20260904161605 88 0.0 0.0 0.00 0.37 0.31 63 1015.0
20260904161049 88 0.0 0.0 0.00 0.37 0.31 65 1015.0
20260904160547 87 0.0 0.0 0.00 0.37 0.31 64 1015.0
20260904160111 88 0.0 0.0 0.00 0.37 0.31 65 1015.0
20260904155550 87 0.0 0.0 0.00 0.37 0.31 65 1014.9
20260904155046 86 0.0 0.0 0.00 0.37 0.31 68 1014.8
20260904154607 86 0.0 0.0 0.00 0.37 0.31 69 1014.9
20260904154049 85 0.0 0.0 0.00 0.37 0.31 68 1014.9
20260904153547 84 0.0 0.0 0.00 0.37 0.31 73 1015.0
20260904153104 83 0.0 0.0 0.00 0.37 0.31 72 1015.0
20260904152548 83 0.0 0.0 0.00 0.37 0.31 74 1015.1
20260904152046 83 0.0 0.0 0.00 0.37 0.31 74 1015.0
20260904151615 83 0.0 0.0 0.00 0.37 0.31 74 1015.0
20260904151047 82 0.0 0.0 0.00 0.37 0.31 76 1015.0
20260904150547 82 0.0 0.0 0.00 0.37 0.31 77 1015.2
20260904150125 82 0.0 0.0 0.00 0.37 0.31 75 1015.2
20260904145547 82 0.0 0.0 0.00 0.37 0.31 77 1015.2
20260904145051 81 0.0 0.0 0.00 0.37 0.31 78 1015.2
20260904144604 80 0.0 0.0 0.00 0.37 0.31 80 1015.4
20260904144046 79 0.0 0.0 0.00 0.37 0.31 81 1015.3
20260904143546 79 0.0 0.0 0.00 0.37 0.31 83 1015.4
20260904143117 78 0.0 0.0 0.00 0.37 0.31 86 1015.2
20260904142546 77 0.0 0.0 0.00 0.37 0.31 90 1015.3
20260904142048 75 0.0 0.0 0.00 0.37 0.31 96 1015.3
20260904141617 74 0.0 0.0 0.00 0.37 0.31 96 1015.3
20260904141047 74 0.0 0.0 0.00 0.37 0.31 96 1015.3
20260904140547 74 0.0 0.0 0.00 0.37 0.31 96 1015.3
20260904140106 74 0.0 0.0 0.00 0.37 0.31 96 1015.2
20260904135547 74 0.0 0.0 0.00 0.37 0.31 96 1015.3
20260904135049 74 0.0 0.0 0.00 0.37 0.31 96 1015.4
20260904134620 74 0.0 0.0 0.00 0.37 0.31 96 1015.4
20260904134046 74 0.0 0.0 0.00 0.37 0.31 96 1015.3
20260904133548 73 0.0 0.0 0.00 0.37 0.31 96 1015.2
20260904133100 73 0.0 0.0 0.00 0.37 0.31 96 1015.3
20260904132549 73 0.0 0.0 0.00 0.37 0.31 96 1015.3
20260904132046 72 0.0 0.0 0.00 0.37 0.31 96 1015.4
20260904131607 72 0.0 0.0 0.00 0.37 0.31 96 1015.5
20260904131052 72 0.0 0.0 0.00 0.37 0.31 96 1015.5
20260904130546 72 0.0 0.0 0.00 0.37 0.31 96 1015.5
20260904130104 71 0.0 0.0 0.00 0.37 0.31 96 1015.6
20260904125547 71 0.0 0.0 0.00 0.37 0.31 96 1015.6
20260904125047 71 0.0 0.0 0.00 0.37 0.31 96 1015.6
20260904124559 71 0.0 0.0 0.00 0.37 0.31 96 1015.6
20260904124055 71 0.0 0.0 0.00 0.37 0.31 96 1015.7
20260904123546 71 0.0 0.0 0.00 0.37 0.31 96 1015.6
20260904123107 71 0.0 0.0 0.00 0.37 0.31 96 1015.5
20260904122546 71 0.0 0.0 0.00 0.37 0.31 95 1015.4
20260904122048 71 0.0 0.0 0.00 0.37 0.31 95 1015.3
20260904121607 70 0.0 0.0 0.00 0.37 0.31 95 1015.2
20260904121049 70 0.0 0.0 0.00 0.37 0.31 95 1015.2
20260904120549 70 0.0 0.0 0.00 0.37 0.31 95 1015.1
20260904120107 70 0.0 0.0 0.00 0.37 0.31 95 1015.2
20260904115546 70 0.0 0.0 0.00 0.37 0.31 95 1015.3
20260904115051 70 0.0 0.0 0.00 0.37 0.31 95 1015.3
20260904114604 70 0.0 0.0 0.00 0.37 0.31 95 1015.1
20260904114046 70 0.0 0.0 0.00 0.37 0.31 95 1015.0
20260904113549 70 0.0 0.0 0.00 0.37 0.31 95 1014.9
20260904113101 70 0.0 0.0 0.00 0.37 0.31 95 1014.7
20260904112549 70 0.0 0.0 0.00 0.37 0.31 95 1014.9
20260904112052 70 0.0 0.0 0.00 0.37 0.31 95 1014.8
20260904111608 70 0.0 0.0 0.00 0.37 0.31 95 1014.7
20260904111057 70 0.0 0.0 0.00 0.37 0.31 95 1014.6
20260904110546 70 0.0 0.0 0.00 0.37 0.31 95 1014.5
20260904110106 70 0.0 0.0 0.00 0.37 0.31 95 1014.5
20260904105549 70 0.0 0.0 0.00 0.37 0.31 95 1014.5
20260904105046 70 0.0 0.0 0.00 0.37 0.31 95 1014.4
20260904104602 70 0.0 0.0 0.00 0.37 0.31 95 1014.3
20260904104056 70 0.0 0.0 0.00 0.37 0.31 95 1014.3
20260904103547 70 0.0 0.0 0.00 0.37 0.31 95 1014.3
20260904103115 70 0.0 0.0 0.00 0.37 0.31 95 1014.2
20260904102547 70 0.0 0.0 0.00 0.37 0.31 95 1014.1
20260904102046 70 0.0 0.0 0.00 0.37 0.31 95 1014.1
20260904101603 70 0.0 0.0 0.00 0.37 0.31 95 1014.1
20260904101047 70 0.0 0.0 0.00 0.37 0.31 94 1014.1
20260904100546 70 0.0 0.0 0.00 0.37 0.31 94 1014.0
20260904100105 70 0.0 0.0 0.00 0.37 0.31 94 1014.1
20260904095546 70 0.0 0.0 0.00 0.37 0.31 94 1014.1
20260904095045 70 0.0 0.0 0.00 0.37 0.31 94 1014.1
20260904094605 70 0.0 0.0 0.00 0.37 0.31 94 1014.0
20260904094046 70 0.0 0.0 0.00 0.37 0.31 94 1014.0
20260904093550 70 0.0 0.0 0.00 0.37 0.31 94 1013.8
20260904093114 70 0.0 0.0 0.00 0.37 0.31 94 1013.8
20260904092547 70 0.0 0.0 0.00 0.37 0.31 94 1013.9
20260904092046 70 0.0 0.0 0.00 0.37 0.31 94 1013.9
20260904091605 70 0.0 0.0 0.00 0.37 0.31 94 1014.0
20260904091047 70 0.0 0.0 0.00 0.37 0.31 94 1014.0
20260904090546 70 0.0 0.0 0.00 0.37 0.31 94 1013.9
20260904090107 70 0.0 0.0 0.00 0.37 0.31 94 1014.0
20260904085549 70 0.0 0.0 0.00 0.37 0.31 94 1014.0
20260904085046 70 0.0 0.0 0.00 0.37 0.31 94 1014.1
20260904084607 70 0.0 0.0 0.00 0.37 0.31 94 1014.0
20260904084051 70 0.0 0.0 0.00 0.37 0.31 94 1014.1
20260904083546 70 0.0 0.0 0.00 0.37 0.31 94 1014.1
20260904083105 70 0.0 0.0 0.00 0.37 0.31 94 1014.0
20260904082548 70 0.0 0.0 0.00 0.37 0.31 94 1014.1
20260904082047 70 0.0 0.0 0.00 0.37 0.31 94 1013.8
20260904081610 70 0.0 0.0 0.00 0.37 0.31 94 1013.9
20260904081046 70 0.0 0.0 0.00 0.37 0.31 94 1013.8
20260904080546 70 0.0 0.0 0.00 0.37 0.31 94 1014.0
20260904080058 70 0.0 0.0 0.00 0.37 0.31 94 1014.0
20260904075547 70 0.0 0.0 0.00 0.37 0.31 94 1014.0
20260904075046 70 0.0 0.0 0.00 0.37 0.31 94 1014.1
20260904074600 70 0.0 0.0 0.00 0.37 0.31 94 1014.1
20260904074049 70 0.0 0.0 0.00 0.37 0.31 94 1014.0
20260904073547 70 0.0 0.0 0.00 0.37 0.31 94 1014.2
20260904073103 70 0.0 0.0 0.00 0.37 0.31 94 1014.1
20260904072548 70 0.0 0.0 0.00 0.37 0.31 94 1014.0
20260904072050 71 0.0 0.0 0.00 0.37 0.31 94 1013.8
20260904071559 71 0.0 0.0 0.00 0.37 0.31 94 1013.9
20260904071046 71 0.0 0.0 0.01 0.37 0.31 94 1013.9
20260904070547 71 0.0 0.0 0.01 0.37 0.31 93 1013.9
20260904070114 71 0.0 0.0 0.01 0.37 0.31 93 1013.9
20260904065547 71 0.0 0.0 0.01 0.37 0.31 93 1013.7
20260904065047 71 0.0 0.0 0.01 0.37 0.31 93 1013.7
20260904064605 71 0.0 0.0 0.01 0.37 0.31 93 1013.9
20260904064047 71 0.0 0.0 0.01 0.37 0.31 93 1013.8
20260904063550 71 0.0 0.0 0.01 0.37 0.31 93 1013.7
20260904063118 71 0.0 0.0 0.01 0.37 0.31 93 1013.9
20260904062546 71 0.0 0.0 0.02 0.37 0.31 93 1013.7
20260904062046 71 0.0 0.0 0.03 0.37 0.31 93 1013.6
20260904061558 71 0.0 0.0 0.04 0.37 0.31 93 1013.7
20260904061046 71 0.0 0.0 0.04 0.36 0.30 93 1013.2
20260904060546 71 0.0 0.0 0.05 0.36 0.30 93 1013.2
20260904060106 71 0.0 0.0 0.07 0.36 0.30 93 1013.3
20260904055546 72 0.0 0.0 0.08 0.36 0.30 93 1013.3
20260904055046 72 0.0 0.0 0.10 0.36 0.30 93 1013.5
20260904054613 72 0.0 0.0 0.13 0.36 0.30 93 1013.3
20260904054050 72 0.0 0.0 0.16 0.36 0.30 92 1013.2
20260904053546 72 0.0 0.0 0.19 0.36 0.30 92 1013.3
20260904053104 72 0.0 0.0 0.22 0.36 0.30 92 1013.9
20260904052547 72 0.0 0.0 0.25 0.35 0.29 92 1014.4
20260904052047 72 0.0 0.0 0.27 0.34 0.28 92 1014.7
20260904051607 72 0.0 0.0 0.27 0.33 0.27 91 1015.3
20260904051046 72 0.0 0.0 0.26 0.32 0.26 91 1015.5
20260904050548 72 0.0 0.0 0.25 0.31 0.25 91 1015.6
20260904050106 73 0.0 0.0 0.23 0.29 0.23 91 1015.9
20260904045547 73 0.0 0.0 0.22 0.28 0.22 91 1016.0
20260904045047 73 0.0 0.0 0.20 0.26 0.20 90 1016.2
20260904044601 73 0.0 0.0 0.17 0.23 0.17 90 1016.3
20260904044046 73 0.0 0.0 0.14 0.20 0.14 90 1016.9
20260904043554 74 0.0 0.0 0.11 0.17 0.11 89 1017.4
20260904043104 74 0.0 0.0 0.08 0.14 0.08 89 1017.1
20260904042547 75 0.0 0.0 0.04 0.10 0.04 89 1016.9
20260904042046 76 0.0 0.0 0.01 0.07 0.01 90 1017.3
20260904041603 76 0.0 0.0 0.00 0.06 0.00 90 1016.4
20260904041046 77 0.0 0.0 0.00 0.06 0.00 91 1016.5
20260904040551 77 0.0 0.0 0.00 0.06 0.00 91 1016.3
20260904040108 78 0.0 0.0 0.00 0.06 0.00 92 1016.3
20260904035548 78 0.0 0.0 0.01 0.06 0.06 92 1016.0
20260904035046 78 0.0 0.0 0.03 0.06 0.06 91 1015.1
20260904034603 78 0.0 0.0 0.06 0.06 0.06 91 1014.5
20260904034046 78 0.0 0.0 0.06 0.06 0.06 91 1014.5
20260904033557 78 0.0 0.0 0.06 0.06 0.06 91 1014.6
20260904033104 78 0.0 0.0 0.06 0.06 0.06 91 1014.6
20260904032545 78 0.0 0.0 0.06 0.06 0.06 91 1014.5
20260904032046 79 0.0 0.0 0.06 0.06 0.06 90 1014.5
20260904031603 79 0.0 0.0 0.06 0.06 0.06 90 1014.3
20260904031046 79 0.0 0.0 0.06 0.06 0.06 90 1014.4
20260904030545 79 0.0 0.0 0.06 0.06 0.06 90 1014.4
20260904030100 79 0.0 0.0 0.06 0.06 0.06 90 1014.3
20260904025549 79 0.0 0.0 0.05 0.05 0.05 90 1014.3
20260904025046 79 0.0 0.0 0.03 0.03 0.03 89 1014.5
20260904024611 80 0.0 0.0 0.00 0.00 0.00 90 1014.9
20260904024046 80 0.0 0.0 0.00 0.00 0.00 90 1014.9
20260904023546 80 0.0 0.0 0.00 0.00 0.00 90 1014.5
20260904023104 80 0.0 0.0 0.00 0.00 0.00 90 1014.5
20260904022546 80 0.0 0.0 0.00 0.00 0.00 89 1014.5
20260904022047 80 0.0 0.0 0.00 0.00 0.00 89 1014.5
20260904021607 80 0.0 0.0 0.00 0.00 0.00 89 1014.5
20260904021050 80 0.0 0.0 0.00 0.00 0.00 89 1014.6
20260904020546 80 0.0 0.0 0.00 0.00 0.00 89 1014.6
20260904020118 80 0.0 0.0 0.00 0.00 0.00 89 1014.7
20260904015546 80 0.0 0.0 0.00 0.00 0.00 89 1014.8
20260904015049 80 0.0 0.0 0.00 0.00 0.00 88 1014.9
20260904014624 80 0.0 0.0 0.00 0.00 0.00 88 1014.7
20260904014046 80 0.0 0.0 0.00 0.00 0.00 88 1014.7
20260904013546 80 0.0 0.0 0.00 0.00 0.00 88 1014.7
20260904013057 81 0.0 0.0 0.00 0.00 0.00 88 1014.6
20260904012545 81 0.0 0.0 0.00 0.00 0.00 88 1014.5
20260904012046 81 0.0 0.0 0.00 0.00 0.00 88 1014.6
20260904011609 81 0.0 0.0 0.00 0.00 0.00 87 1014.5
20260904011046 81 0.0 0.0 0.00 0.00 0.00 87 1014.7
20260904010546 81 0.0 0.0 0.00 0.00 0.00 87 1014.8
20260904010104 81 0.0 0.0 0.00 0.00 0.00 87 1014.8
20260904005547 81 0.0 0.0 0.00 0.00 0.00 86 1014.9
20260904005046 81 0.0 0.0 0.00 0.00 0.00 86 1015.0
20260904004603 82 0.0 0.0 0.00 0.00 0.00 86 1015.0
20260904004046 82 0.0 0.0 0.00 0.00 0.00 86 1015.1
20260904003546 82 0.0 0.0 0.00 0.00 0.00 85 1015.3
20260904003100 82 0.0 0.0 0.00 0.00 0.00 85 1015.3
20260904002546 82 0.0 0.0 0.00 0.00 0.00 85 1015.4
20260904002051 82 0.0 0.0 0.00 0.00 0.00 85 1015.3
20260904001602 83 0.0 0.0 0.00 0.00 0.00 84 1015.2
20260904001046 83 0.0 0.0 0.00 0.00 0.00 84 1015.3
20260904000546 83 0.0 0.0 0.00 0.00 0.00 84 1015.1
20260904000125 83 0.0 0.0 0.00 0.00 0.00 83 1015.0
20260903235548 83 0.0 0.0 0.00 0.00 0.00 83 1015.0
20260903235056 84 0.0 0.0 0.00 0.00 0.00 83 1015.1
20260903234603 84 0.0 0.0 0.00 0.00 0.00 82 1014.9
20260903234046 84 0.0 0.0 0.00 0.00 0.00 82 1014.9
20260903233547 84 0.0 0.0 0.00 0.00 0.00 81 1014.6
20260903233102 84 0.0 0.0 0.00 0.00 0.00 81 1014.6
20260903232546 85 0.0 0.0 0.00 0.00 0.00 81 1014.5
20260903232052 85 0.0 0.0 0.00 0.00 0.00 81 1014.6
20260903231600 85 0.0 0.0 0.00 0.00 0.00 80 1014.5
20260903231042 85 0.0 0.0 0.00 0.00 0.00 80 1014.6
20260903230546 85 0.0 0.0 0.00 0.00 0.00 80 1014.5
20260903230056 85 0.0 0.0 0.00 0.00 0.00 80 1014.5
20260903225547 86 0.0 0.0 0.00 0.00 0.00 80 1014.5
20260903225046 86 0.0 0.0 0.00 0.00 0.00 79 1014.5
20260903224627 86 0.0 0.0 0.00 0.00 0.00 79 1014.4
20260903224047 86 0.0 0.0 0.00 0.00 0.00 79 1014.3
20260903223546 86 0.0 0.0 0.00 0.00 0.00 79 1014.3
20260903223101 86 0.0 0.0 0.00 0.00 0.00 78 1014.3
20260903222546 86 0.0 0.0 0.00 0.00 0.00 78 1014.3
20260903222047 86 0.0 0.0 0.00 0.00 0.00 78 1014.2
20260903221605 86 0.0 0.0 0.00 0.00 0.00 78 1014.1
20260903221047 87 0.0 0.0 0.00 0.00 0.00 74 1014.0
20260903220546 87 0.0 0.0 0.00 0.00 0.00 73 1014.1
20260903220108 87 0.0 0.0 0.00 0.00 0.00 73 1014.1
20260903215548 87 0.0 0.0 0.00 0.00 0.00 72 1014.3
20260903215046 87 0.0 0.0 0.00 0.00 0.00 73 1014.2
20260903214613 87 0.0 0.0 0.00 0.00 0.00 73 1014.2
20260903214046 87 0.0 0.0 0.00 0.00 0.00 73 1014.3
20260903213546 87 0.0 0.0 0.00 0.00 0.00 72 1014.5
20260903213113 87 0.0 0.0 0.00 0.00 0.00 71 1014.4
20260903212547 87 0.0 0.0 0.00 0.00 0.00 73 1014.4
20260903212047 87 0.0 0.0 0.00 0.00 0.00 71 1014.6
20260903211610 87 0.0 0.0 0.00 0.00 0.00 71 1014.7
20260903211046 87 0.0 0.0 0.00 0.00 0.00 72 1014.8
20260903210546 87 0.0 0.0 0.00 0.00 0.00 71 1014.7
20260903210128 87 0.0 0.0 0.00 0.00 0.00 72 1014.7
20260903205546 88 0.0 0.0 0.00 0.01 0.00 71 1014.6
20260903205046 88 0.0 0.0 0.00 0.01 0.00 72 1014.6
20260903204603 88 0.0 0.0 0.00 0.01 0.00 70 1014.7
20260903204049 88 0.0 0.0 0.00 0.01 0.00 74 1014.8
20260903203546 88 0.0 0.0 0.00 0.01 0.00 71 1014.8
20260903203113 88 0.0 0.0 0.00 0.01 0.00 73 1014.8
20260903202549 88 0.0 0.0 0.00 0.01 0.00 72 1014.9
20260903202047 88 0.0 0.0 0.00 0.01 0.00 71 1015.1
20260903201558 88 0.0 0.0 0.00 0.01 0.00 71 1015.2
20260903201059 89 0.0 0.0 0.00 0.01 0.00 69 1015.3
20260903200546 89 0.0 0.0 0.00 0.01 0.00 69 1015.3
20260903200104 90 0.0 0.0 0.00 0.01 0.00 68 1015.5
20260903195550 89 0.0 0.0 0.00 0.11 0.00 71 1015.5
20260903195046 88 0.0 0.0 0.00 0.11 0.00 73 1015.5
20260903194603 89 0.0 0.0 0.00 0.11 0.00 71 1015.6
20260903194049 89 0.0 0.0 0.00 0.11 0.00 70 1015.7
20260903193546 89 0.0 0.0 0.00 0.11 0.00 72 1015.9
20260903193107 88 0.0 0.0 0.00 0.11 0.00 73 1015.9
20260903192559 88 0.0 0.0 0.00 0.11 0.00 70 1016.1